When you browse on this site, cookies collect data to enhance your experience and personalize the content and advertising you see.
Visit our Privacy Policy to learn more. By continuing to use the site, you agree to this use of cookies and data.
  • In Austria
  • List of Countries
  • For 7 days
  • Water Temperature
  • Weather Map
  • News
  • Weather Widgets
  • user-avatar
    Login

    Hourly Weather Molango

    Today, 17 November, Sunday

    Time Temperature Precipitation Wind Pressure Humidity
    00:00 +7°C° 0 mm 0 mps 609 mmHg 94%
    01:00 +7°C° 0 mm 0 mps 608 mmHg 93%
    02:00 +8°C° 0 mm 1 mps 608 mmHg 93%
    03:00 +7°C° 0 mm 0 mps 608 mmHg 91%
    04:00 +7°C° 0 mm 0 mps 608 mmHg 90%
    05:00 +7°C° 0 mm 0 mps 608 mmHg 89%
    06:00 +9°C° 0 mm 0 mps 609 mmHg 81%
    07:00 +12°C° 0 mm 0 mps 610 mmHg 73%
    08:00 +14°C° 0 mm 0 mps 611 mmHg 66%
    09:00 +16°C° 0 mm 1 mps 612 mmHg 63%
    10:00 +19°C° 0 mm 1 mps 612 mmHg 59%
    11:00 +19°C° 0 mm 2 mps 612 mmHg 56%
    12:00 +19°C° 0 mm 2 mps 611 mmHg 60%
    13:00 +18°C° 0 mm 2 mps 610 mmHg 64%
    14:00 +18°C° 0 mm 2 mps 610 mmHg 67%
    15:00 +16°C° 0.1 mm 2 mps 609 mmHg 77%
    16:00 +15°C° 0.1 mm 1 mps 609 mmHg 86%
    17:00 +13°C° 0.1 mm 1 mps 608 mmHg 96%
    18:00 +12°C° 0 mm 1 mps 609 mmHg 95%
    19:00 +11°C° 0 mm 0 mps 610 mmHg 95%
    20:00 +11°C° 0 mm 0 mps 610 mmHg 94%
    21:00 +11°C° 0 mm 0 mps 610 mmHg 92%
    22:00 +10°C° 0 mm 0 mps 610 mmHg 91%
    23:00 +11°C° 0 mm 1 mps 609 mmHg 89%

    Tomorrow, 18 November, Monday

    Time Temperature Precipitation Wind Pressure Humidity
    00:00 +10°C° 0 mm 0 mps 609 mmHg 88%
    01:00 +10°C° 0 mm 0 mps 609 mmHg 87%
    02:00 +10°C° 0 mm 0 mps 609 mmHg 86%
    03:00 +10°C° 0 mm 0 mps 608 mmHg 87%
    04:00 +9°C° 0 mm 0 mps 608 mmHg 87%
    05:00 +9°C° 0 mm 0 mps 608 mmHg 88%
    06:00 +10°C° 0 mm 0 mps 609 mmHg 84%
    07:00 +13°C° 0 mm 1 mps 610 mmHg 80%
    08:00 +14°C° 0 mm 1 mps 611 mmHg 76%
    09:00 +15°C° 0 mm 1 mps 611 mmHg 71%
    10:00 +17°C° 0 mm 2 mps 611 mmHg 66%
    11:00 +18°C° 0 mm 2 mps 611 mmHg 61%
    12:00 +18°C° 0 mm 2 mps 610 mmHg 66%
    13:00 +17°C° 0 mm 2 mps 610 mmHg 70%
    14:00 +17°C° 0 mm 2 mps 609 mmHg 74%
    15:00 +15°C° 0 mm 2 mps 608 mmHg 81%
    16:00 +14°C° 0 mm 1 mps 608 mmHg 88%
    17:00 +12°C° 0 mm 0 mps 608 mmHg 95%
    18:00 +12°C° 0 mm 1 mps 608 mmHg 94%
    19:00 +12°C° 0 mm 1 mps 609 mmHg 93%
    20:00 +12°C° 0 mm 1 mps 609 mmHg 92%
    21:00 +12°C° 0 mm 1 mps 609 mmHg 92%
    22:00 +12°C° 0 mm 1 mps 608 mmHg 92%
    23:00 +10°C° 0 mm 0 mps 608 mmHg 92%

    Day after tomorrow, 19 November, Tuesday

    Time Temperature Precipitation Wind Pressure Humidity
    00:00 +10°C° 0 mm 0 mps 608 mmHg 92%
    01:00 +10°C° 0 mm 0 mps 608 mmHg 92%
    02:00 +10°C° 0 mm 0 mps 607 mmHg 92%
    03:00 +10°C° 0 mm 0 mps 607 mmHg 93%
    04:00 +9°C° 0 mm 0 mps 608 mmHg 93%
    05:00 +9°C° 0 mm 0 mps 608 mmHg 93%
    06:00 +11°C° 0 mm 0 mps 609 mmHg 87%
    07:00 +13°C° 0 mm 0 mps 610 mmHg 82%
    08:00 +14°C° 0 mm 0 mps 611 mmHg 76%
    09:00 +18°C° 0 mm 1 mps 611 mmHg 71%
    10:00 +19°C° 0 mm 1 mps 611 mmHg 67%
    11:00 +19°C° 0 mm 2 mps 611 mmHg 63%
    12:00 +19°C° 0 mm 2 mps 611 mmHg 65%
    13:00 +19°C° 0 mm 2 mps 610 mmHg 68%
    14:00 +18°C° 0 mm 2 mps 610 mmHg 71%
    15:00 +17°C° 0 mm 2 mps 609 mmHg 79%
    16:00 +15°C° 0 mm 1 mps 609 mmHg 87%
    17:00 +14°C° 0 mm 1 mps 608 mmHg 96%
    18:00 +14°C° 0 mm 1 mps 609 mmHg 96%
    19:00 +12°C° 0 mm 0 mps 609 mmHg 96%
    20:00 +12°C° 0 mm 0 mps 609 mmHg 96%
    21:00 +12°C° 0 mm 0 mps 609 mmHg 96%
    22:00 +12°C° 0 mm 0 mps 609 mmHg 95%
    23:00 +12°C° 0 mm 0 mps 609 mmHg 95%

    20 November, Wednesday

    Time Temperature Precipitation Wind Pressure Humidity
    00:00 +11°C° 0 mm 0 mps 609 mmHg 95%
    01:00 +11°C° 0 mm 0 mps 608 mmHg 95%
    02:00 +11°C° 0 mm 0 mps 608 mmHg 95%
    03:00 +11°C° 0 mm 0 mps 608 mmHg 94%
    04:00 +11°C° 0 mm 0 mps 608 mmHg 94%
    05:00 +11°C° 0 mm 0 mps 608 mmHg 93%
    06:00 +12°C° 0 mm 0 mps 609 mmHg 88%
    07:00 +14°C° 0 mm 0 mps 610 mmHg 82%
    08:00 +15°C° 0 mm 0 mps 611 mmHg 76%
    09:00 +17°C° 0 mm 0 mps 611 mmHg 72%
    10:00 +20°C° 0 mm 1 mps 611 mmHg 67%
    11:00 +22°C° 0 mm 1 mps 611 mmHg 62%
    12:00 +21°C° 0 mm 1 mps 611 mmHg 65%
    13:00 +20°C° 0 mm 2 mps 610 mmHg 67%
    14:00 +20°C° 0 mm 2 mps 609 mmHg 69%
    15:00 +19°C° 0.2 mm 2 mps 609 mmHg 77%
    16:00 +18°C° 0.2 mm 1 mps 608 mmHg 86%
    17:00 +15°C° 0.2 mm 1 mps 608 mmHg 94%
    18:00 +14°C° 0 mm 0 mps 608 mmHg 94%
    19:00 +14°C° 0 mm 0 mps 609 mmHg 94%
    20:00 +13°C° 0 mm 0 mps 609 mmHg 94%
    21:00 +13°C° 0 mm 0 mps 609 mmHg 93%
    22:00 +13°C° 0 mm 0 mps 609 mmHg 91%
    23:00 +13°C° 0 mm 0 mps 609 mmHg 90%

    21 November, Thursday

    Time Temperature Precipitation Wind Pressure Humidity
    00:00 +13°C° 0 mm 0 mps 609 mmHg 89%
    01:00 +12°C° 0 mm 0 mps 608 mmHg 88%
    02:00 +12°C° 0 mm 0 mps 608 mmHg 87%
    03:00 +12°C° 0 mm 0 mps 608 mmHg 87%
    04:00 +12°C° 0 mm 0 mps 609 mmHg 86%
    05:00 +12°C° 0 mm 0 mps 609 mmHg 86%
    06:00 +14°C° 0 mm 0 mps 610 mmHg 81%
    07:00 +16°C° 0 mm 0 mps 611 mmHg 76%
    08:00 +17°C° 0 mm 0 mps 612 mmHg 70%
    09:00 +21°C° 0 mm 1 mps 612 mmHg 66%
    10:00 +22°C° 0 mm 1 mps 612 mmHg 62%
    11:00 +23°C° 0 mm 1 mps 612 mmHg 58%
    12:00 +23°C° 0.1 mm 2 mps 611 mmHg 62%
    13:00 +21°C° 0.1 mm 2 mps 610 mmHg 67%
    14:00 +21°C° 0.1 mm 2 mps 610 mmHg 71%
    15:00 +19°C° 0.2 mm 2 mps 609 mmHg 79%
    16:00 +19°C° 0.2 mm 1 mps 609 mmHg 87%
    17:00 +16°C° 0.2 mm 1 mps 608 mmHg 95%
    18:00 +16°C° 0 mm 1 mps 609 mmHg 95%
    19:00 +15°C° 0 mm 0 mps 609 mmHg 95%
    20:00 +14°C° 0 mm 0 mps 609 mmHg 95%
    21:00 +14°C° 0 mm 0 mps 609 mmHg 94%
    22:00 +14°C° 0 mm 0 mps 609 mmHg 94%
    23:00 +13°C° 0 mm 0 mps 609 mmHg 93%

    22 November, Friday

    Time Temperature Precipitation Wind Pressure Humidity
    00:00 +13°C° 0 mm 0 mps 608 mmHg 92%
    01:00 +13°C° 0 mm 0 mps 608 mmHg 90%
    02:00 +13°C° 0 mm 0 mps 608 mmHg 89%
    03:00 +13°C° 0 mm 0 mps 608 mmHg 89%
    04:00 +13°C° 0 mm 0 mps 608 mmHg 88%
    05:00 +13°C° 0 mm 0 mps 608 mmHg 88%
    06:00 +14°C° 0 mm 0 mps 609 mmHg 82%
    07:00 +16°C° 0 mm 0 mps 610 mmHg 77%
    08:00 +20°C° 0 mm 1 mps 611 mmHg 71%
    09:00 +21°C° 0 mm 1 mps 611 mmHg 67%
    10:00 +22°C° 0 mm 1 mps 612 mmHg 62%
    11:00 +24°C° 0 mm 1 mps 612 mmHg 57%
    12:00 +24°C° 0.2 mm 2 mps 611 mmHg 60%
    13:00 +23°C° 0.2 mm 2 mps 610 mmHg 62%
    14:00 +23°C° 0.2 mm 2 mps 609 mmHg 65%
    15:00 +21°C° 0.5 mm 1 mps 609 mmHg 73%
    16:00 +20°C° 0.5 mm 1 mps 608 mmHg 82%
    17:00 +18°C° 0.5 mm 1 mps 608 mmHg 90%
    18:00 +15°C° 0 mm 0 mps 608 mmHg 90%
    19:00 +15°C° 0 mm 0 mps 609 mmHg 89%
    20:00 +15°C° 0 mm 0 mps 609 mmHg 89%
    21:00 +14°C° 0 mm 0 mps 609 mmHg 90%
    22:00 +14°C° 0 mm 0 mps 609 mmHg 91%
    23:00 +14°C° 0 mm 0 mps 609 mmHg 92%
    Show more